Location: Bonn
(50.7330°N, 7.1000°E)
Time: 22:38:16
(UTC+02:00)

Iridium 67 - Visible Passes

Search period start: 25 May 2018 00:00
Search period end: 04 June 2018 00:00
Orbit: 776 x 779 km, 86.4° (Epoch: 25 May)

Date Brightness Start Highest point End Pass type
(mag) Time Alt. Az. Time Alt. Az. Time Alt. Az.
25 May 6.2 01:49:44 10° N 01:54:50 49° E 01:57:51 23° SE visible
25 May 6.8 03:30:59 10° NNW 03:35:16 26° W 03:38:19 16° SW visible
26 May 6.9 01:16:30 10° NNE 01:21:05 30° ENE 01:24:21 16° SE visible
26 May 6.1 02:57:02 10° NNW 03:01:58 43° W 03:04:48 23° SW visible
27 May 7.5 00:43:32 10° NNE 00:47:12 19° ENE 00:50:51 10° ESE visible
27 May 5.5 02:23:18 10° N 02:28:33 73° W 02:31:19 28° S visible
27 May 7.6 04:06:29 10° NW 04:08:18 12° WNW 04:10:07 10° W visible
28 May 7.9 00:11:28 10° NE 00:13:11 11° ENE 00:14:54 10° E visible
28 May 5.7 01:49:46 10° N 01:54:59 68° E 01:57:49 27° SSE visible
28 May 7.2 03:31:30 10° NNW 03:35:10 20° WNW 03:38:17 12° WSW visible
29 May 6.4 01:16:23 10° N 01:21:20 40° ENE 01:24:20 21° SE visible
29 May 6.6 02:57:21 10° NNW 03:01:57 32° W 03:04:48 19° SW visible
30 May 7.1 00:43:14 10° NNE 00:47:32 25° ENE 00:50:51 14° ESE visible
30 May 5.9 02:23:30 10° NNW 02:28:35 53° W 02:31:19 26° SSW visible
31 May 7.7 00:10:30 10° NNE 00:13:35 16° ENE 00:16:41 10° ESE visible
31 May 5.5 01:49:51 10° N 01:55:07 89° W 01:57:50 29° S visible
31 May 7.6 03:32:16 10° NW 03:35:03 15° WNW 03:37:48 10° WSW visible
01 Jun 5.9 01:16:22 10° N 01:21:31 55° E 01:24:22 25° SSE visible
01 Jun 7.0 02:57:46 10° NNW 03:01:53 24° WNW 03:04:50 15° WSW visible
02 Jun 6.7 00:43:04 10° NNE 00:47:48 33° ENE 00:50:55 18° SE visible
02 Jun 6.3 02:23:46 10° NNW 02:28:35 39° W 02:31:23 22° SW visible
03 Jun 7.3 00:10:02 10° NNE 00:13:56 21° ENE 00:17:27 11° ESE visible
03 Jun 5.7 01:50:00 10° N 01:55:11 66° W 01:57:55 28° SSW visible
03 Jun 7.8 03:33:55 10° WNW 03:34:51 10° WNW 03:35:48 10° W visible
03 Jun 7.8 23:37:38 10° NE 23:39:57 13° ENE 23:42:16 10° E visible
